THOR AGENA D R/B

Last updated on Thu Nov 21 2024 00:02:11 GMT+0000 (Coordinated Universal Time)

1 00733U 64002A 24325.41740957 .00000514 00000+0 20208-3 0 9992 2 00733 99.0955 302.5376 0032666 197.6227 162.3824 14.33545777170331
UTC large
Height (km)
Speed (km/s)
/
Latitude / Longitude
Inclination (degrees)
Orbital Period (minutes)
Azimuth
Elevation
Range (km)
Doppler Factor

Next 0 passes for location: London (51.5072 / 0.1276)

Sorry there are no passes over London.